SCP
0 -0 0 0 -0 -0 -0 -0 -0 -0 -0 -0 -0 -0 -0 -0 -0 -0 -0 -0 -0 0 0 0 0 0 0 0 0 0 0 0 0 0 0 0 0 0 0 0 0 0 0 0 0 0 0 0 0 0 0 0 0 0
0 0 0 0 0 -0 -0 -0 -0 -0 -0 -0 -0 -0 -0 -0 -0 -0 0 -0 -0 0 0 0 0 -0 -0 0 -0 -0 0 0 0 0 0 0 0 0 0 0 0 0 0 0 0 0 0 0 0 0 0 0 0 0
-0 -0 0 0 0 0 -0 -0 -0 -0 -0 -0 -0 -0 -0 -0 -0 -0 0 0 0 0 0 -0 -0 -0 -0 -0 -0 -0 -0 0 0 0 0 0 0 0 0 0 0 0 0 0 0 0 0 0 0 0 0 0 0 0
0 -0 0 0 0 0 -0 -0 -0 -0 -0 -0 -0 -0 -0 -0 -0 -0 0 0 0 0 0 0 -0 -0 -0 -0 -0 -0 -0 -0 -0 0 0 -0 -0 -0 0 0 0 0 0 0 -0 -0 -0 0 -0 -0 0 0 0 0
0 0 0 0 0 -0 -0 -0 -0 -0 -0 -0 -0 -0 0 0 0 0 0 0 0 0 0 0 0 -0 -0 -0 -0 -0 -0 -0 -0 -0 -0 -0 -0 -0 -0 -0 -0 -0 -0 -0 0 -0 -0 -0 -0 -0 0 0 0 0
0 0 0 0 0 0 0 0 -0 -0 -0 -0 -0 0 -0 -0 0 0 -0 -0 -0 0 0 0 0 0 -0 -0 -0 -0 -0 -0 -0 -0 -0 -0 -0 -0 -0 0 -0 -0 -0 -0 -0 -0 -0 -0 -0 0 0 0 0 0
0 0 -0 0 0 0 0 0 -0 -0 -0 -0 -0 -0 -0 -0 0 0 -0 -0 0 0 0 0 0 0 0 0 0 0 0 -0 -0 -0 -0 -0 -0 0 -0 -0 -0 0 0 -0 -0 -0 -0 -0 -0 0 0 0 0 0
0 0 -0 -0 -0 -0 -0 -0 -0 -0 -0 -0 -0 -0 -0 -0 -0 0 0 -0 0 -0 -0 0 0 0 0 0 0 0 0 0 0 0 0 0 -0 0 -0 -0 -0 0 -0 -0 0 -0 0 -0 -0 0 0 0 0 0
-0 -0 -0 -0 -0 -0 -0 0 -0 -0 -0 -0 -0 -0 -0 -0 0 0 -0 -0 0 -0 -0 0 0 0 0 0 0 0 0 0 0 0 0 0 -0 -0 -0 -0 -0 -0 -0 -0 -0 -0 -0 -0 -0 0 0 0 0 0
-0 -0 -0 -0 -0 -0 -0 0 0 0 -0 -0 -0 0 0 0 0 0 0 0 0 0 0 0 0 0 0 0 0 0 0 0 0 0 0 -0 -0 -0 -0 -0 -0 -0 -0 -0 0 0 0 0 0 0 0 0 0 0
-0 -0 -0 -0 -0 -0 -0 0 0 0 0 0 0 0 0 0 0 0 -0 -0 -0 -0 0 0 0 -0 0 0 -0 0 0 0 0 -0 0 0 -0 -0 0 -0 0 0 -0 -0 0 0 0 0 0 0 0 0 0 0
-0 -0 -0 -0 0 0 0 0 0 0 0 0 0 0 0 0 0 0 -0 0 -0 -0 0 0 0 0 0 0 0 0 0 0 0 0 0 0 0 0 -0 -0 0 0 0 0 0 0 0 0 0 0 0 0 0 0
0 0 0 0 0 0 0 0 0 -0 0 0 0 0 0 0 0 0 0 0 0 0 0 0 0 0 0 0 0 0 0 0 0 0 0 0 -0 0 0 0 0 0 0 0 0 0 0 0 0 0 0 0 0 0
0 0 0 0 0 0 0 0 0 0 0 0 0 0 0 0 0 0 0 0 0 0 0 0 0 0 0 0 0 0 0 0 0 0 0 0 0 0 0 0 0 0 0 0 0 0 0 0 0 0 0 0 0 0
0 0 0 0 0 0 0 0 0 0 0 0 0 0 0 0 0 0 0 0 0 0 0 0 0 0 0 0 0 0 0 0 0 0 0 0 0 0 0 0 0 0 0 0 0 0 0 0 0 0 0 0 0 0
0 0 0 0 0 0 0 0 0 0 0 0 0 0 0 0 0 0 0 0 0 0 0 0 0 0 0 0 0 0 0 0 0 0 0 0 0 0 0 0 0 0 0 0 0 0 0 0 0 0 0 0 0 0
0 0 0 0 0 0 0 0 0 0 0 0 0 0 0 0 0 0 0 0 0 0 0 0 0 0 0 0 0 0 0 0 0 0 0 0 0 0 0 0 0 0 0 0 0 0 0 0 0 0 0 0 0 0
0 0 0 0 0 0 0 0 0 0 0 0 0 0 0 0 0 0 0 0 0 0 0 0 0 0 0 0 0 0 0 0 0 0 0 0 0 0 0 0 0 0 0 0 0 0 0 0 0 0 0 0 0 0
0 0 0 0 0 0 0 0 0 0 0 0 0 0 0 0 0 0 0 0 0 0 0 0 0 0 0 0 0 0 0 0 0 0 0 0 0 0 0 0 0 0 0 0 0 0 0 0 0 0 0 0 0 0
0 0 0 0 0 0 0 0 0 0 0 0 0 0 0 0 0 0 0 0 0 0 0 0 0 0 0 0 0 0 0 0 0 0 0 0 0 0 0 0 0 0 0 0 0 0 0 0 0 0 0 0 0 0
0 0 0 0 0 0 0 0 0 0 0 0 0 0 0 0 0 0 0 0 0 0 0 0 0 0 0 0 0 0 0 0 0 0 0 0 0 0 0 0 0 0 0 0 0 0 0 0 0 0 0 0 0 0
0 0 0 0 0 0 0 0 0 0 0 0 0 0 0 0 0 0 0 0 0 0 0 0 0 0 0 0 0 0 0 0 0 0 0 0 0 0 0 0 0 0 0 0 0 0 0 0 0 0 0 0 0 0
0 0 0 0 0 0 0 0 0 0 0 0 0 0 0 0 0 0 0 0 0 0 0 0 0 0 0 0 0 0 0 0 0 0 0 0 0 0 0 0 0 0 0 0 0 0 0 0 0 0 0 0 0 0
0 0 0 0 0 0 0 0 0 0 0 0 0 0 0 0 0 0 0 0 0 0 0 0 0 0 0 0 0 0 0 0 0 0 0 0 0 0 0 0 0 0 0 0 0 0 0 0 0 0 0 0 0 0
0 0 0 0 0 0 0 0 0 0 0 0 0 0 0 0 0 0 0 0 0 0 0 0 0 0 0 0 0 0 0 0 0 0 0 0 0 0 0 0 0 0 0 0 0 0 0 0 0 0 0 0 0 0
0 0 0 0 0 0 0 0 0 0 0 0 0 0 0 0 0 0 0 0 0 0 0 0 0 0 0 0 0 0 0 0 0 0 0 0 0 0 0 0 0 0 0 0 0 0 0 0 0 0 0 0 0 0
0 0 0 0 0 0 0 0 0 0 0 0 0 0 0 0 0 0 0 0 0 0 0 0 0 0 0 0 0 0 0 0 0 0 0 0 0 0 0 0 0 0 0 0 0 0 0 0 0 0 0 0 0 0
0 0 0 0 0 0 0 0 0 0 0 0 0 0 0 0 0 0 0 0 0 0 0 0 0 0 0 0 0 0 0 0 0 0 0 0 0 0 0 0 0 0 0 0 0 0 0 0 0 0 0 0 0 0
0 0 0 0 0 0 0 0 0 0 0 0 0 0 0 0 0 0 0 0 0 0 0 0 0 0 0 0 0 0 0 0 0 0 0 0 0 0 0 0 0 0 0 0 0 0 0 0 0 0 0 0 0 0
0 0 0 0 0 0 0 0 0 0 0 0 0 0 0 0 0 0 0 0 0 0 0 0 0 0 0 0 0 0 0 0 0 0 0 0 0 0 0 0 0 0 0 0 0 0 0 0 0 0 0 0 0 0
0 0 0 0 0 0 0 0 0 0 0 0 0 0 0 0 0 0 0 0 0 0 0 0 0 0 0 0 0 0 0 0 0 0 0 0 0 0 0 0 0 0 0 0 0 0 0 0 0 0 0 0 0 0
0 0 0 0 0 0 0 0 0 0 0 0 0 0 0 0 0 0 0 0 0 0 0 0 0 0 0 0 0 0 0 0 0 0 0 0 0 0 0 0 0 0 0 0 0 0 0 0 0 0 0 0 0 0
0 0 0 0 0 0 0 0 0 0 0 0 0 0 0 0 0 0 0 0 0 0 0 0 0 0 0 0 0 0 0 0 0 0 0 0 0 0 0 0 0 0 0 0 0 0 0 0 0 0 0 0 0 0
Wind_Speed_500mb
18 18 19 16 14 13 11 8 6 4 4 8 13 13 7 7 12 10 8 7 6 9 13 7 6 5 6 9 6 11 9 2 3 4 3 3 4 6 4 3 11 17 17 11 12 12 20 21 5 12 3 9 10 14
21 19 16 13 12 15 18 16 14 12 11 10 14 21 22 11 8 9 5 5 11 6 11 12 6 7 8 9 6 12 4 6 11 5 2 4 4 4 0 5 14 10 12 9 20 15 5 14 6 15 19 11 5 4
23 19 19 18 14 8 6 12 17 17 14 12 16 12 19 11 4 5 3 7 13 10 10 7 5 9 9 10 13 6 3 4 5 8 7 2 5 6 7 10 6 12 21 8 7 16 36 35 32 35 29 21 19 17
23 21 19 16 13 12 10 7 9 14 16 12 4 7 12 9 5 4 2 4 8 9 6 5 7 7 9 11 11 12 9 11 9 7 3 3 5 8 4 5 7 3 15 13 20 30 35 46 40 35 32 35 25 21
25 21 19 17 12 9 6 4 6 8 8 11 12 12 13 12 11 8 7 9 11 6 6 7 10 7 5 9 10 12 11 9 7 5 3 5 3 4 4 4 15 24 20 13 13 15 23 21 23 23 33 34 26 26
28 25 21 17 12 12 9 6 5 3 7 10 10 12 16 17 15 8 3 2 15 14 7 5 5 2 11 7 12 11 15 12 5 4 4 5 6 3 7 9 18 34 57 58 55 42 38 36 30 21 25 26 32 32
29 24 21 19 15 10 9 7 6 6 3 6 11 13 15 12 15 10 6 8 18 12 6 9 6 3 7 10 7 7 11 5 5 3 6 4 4 8 7 12 8 24 42 48 54 48 40 49 31 26 39 39 32 32
29 24 21 18 15 12 10 9 7 6 5 4 8 13 13 7 6 6 11 10 19 6 5 5 4 6 13 6 5 7 5 6 5 4 4 3 4 10 13 41 36 32 27 31 33 35 45 33 23 31 32 30 33 33
32 28 24 19 14 11 9 8 7 7 6 7 9 14 11 6 3 3 8 16 20 5 5 4 7 5 15 6 7 7 7 6 4 5 4 4 8 16 26 35 38 40 26 18 18 35 43 44 37 35 35 38 39 40
35 30 26 23 21 18 14 8 5 2 2 3 5 4 4 5 9 16 7 7 8 7 7 4 11 7 11 9 5 7 1 1 4 2 3 7 11 64 67 65 62 54 37 34 35 31 28 38 40 41 41 38 43 39
36 32 28 23 20 16 15 12 7 4 4 2 2 4 7 14 8 4 2 2 3 4 9 9 9 10 11 7 7 5 5 3 4 3 4 6 9 12 21 20 14 35 53 61 54 47 39 35 34 37 43 41 39 39
41 34 28 23 19 17 15 14 10 8 5 4 2 7 9 6 3 3 2 1 6 4 13 12 11 10 12 10 7 5 4 3 6 1 4 7 10 30 19 11 10 12 15 22 33 45 51 53 50 48 46 46 44 43
41 34 28 24 21 19 16 15 13 10 7 4 6 7 7 4 4 9 11 6 5 18 22 16 9 10 9 7 9 5 9 6 3 4 7 11 19 17 21 25 25 22 24 24 23 27 31 35 38 41 41 42 45 46
43 38 33 29 25 22 20 21 16 10 4 5 7 5 8 7 10 9 5 3 9 11 38 26 15 7 8 6 4 7 4 1 5 6 12 7 34 32 31 29 27 29 32 33 34 34 35 36 38 41 44 47 50 49
47 43 38 34 30 27 28 24 18 13 7 7 7 9 12 10 8 6 13 8 12 40 45 19 12 6 4 7 1 8 4 9 12 11 7 23 24 30 40 40 37 36 37 38 38 40 40 43 45 46 49 51 53 51
52 40 49 40 36 35 36 29 23 15 7 10 13 6 9 2 5 10 18 14 29 51 21 9 8 5 6 5 9 15 8 14 9 9 40 28 27 34 37 36 35 38 40 43 42 41 42 44 47 50 53 55 52 47
50 63 57 46 42 42 40 33 20 12 12 10 12 26 21 10 7 8 22 21 46 38 6 7 11 11 8 4 8 10 13 9 17 27 22 16 26 33 37 39 40 41 46 47 45 44 46 49 53 54 54 45 41 42
65 64 48 41 55 57 48 38 15 13 16 26 13 20 28 24 17 19 24 34 45 29 16 8 16 10 12 13 10 9 29 35 31 27 24 24 27 34 40 46 47 49 52 51 51 52 54 56 53 48 42 42 43 44
69 67 47 59 67 54 27 25 21 14 39 15 35 34 29 24 37 33 28 40 53 35 11 11 10 10 11 16 14 34 37 38 44 48 51 46 41 45 49 54 54 56 59 58 56 56 56 52 47 44 44 44 42 38
66 60 55 54 69 28 16 17 26 16 13 20 31 29 20 24 35 37 41 42 62 16 12 9 13 32 21 41 48 57 58 53 46 55 66 65 51 45 39 45 51 57 60 62 62 62 57 50 46 45 43 38 34 31
71 63 51 54 79 43 20 17 24 14 12 17 21 32 19 21 21 24 27 39 28 16 11 60 80 95 97 98 102 105 102 92 86 79 80 70 69 64 63 57 57 61 64 66 68 59 52 48 45 40 36 32 29 27
79 82 68 85 31 27 25 29 14 18 15 10 15 20 9 9 15 19 23 29 20 38 48 77 96 105 105 108 115 104 100 97 89 85 87 85 80 78 74 66 62 63 63 62 58 51 45 42 39 34 31 28 27 25
73 87 52 40 26 33 14 35 23 24 8 14 17 9 8 13 16 24 16 24 28 62 77 89 99 103 110 112 97 98 98 95 99 101 100 94 88 79 73 66 59 58 57 52 48 46 43 37 33 31 29 28 26 24
92 57 37 35 38 14 23 23 15 16 11 9 10 9 8 11 14 11 10 13 54 65 76 96 94 95 95 95 95 95 91 85 84 79 72 65 66 63 51 47 48 45 44 44 43 40 38 34 33 32 31 28 26 24
38 31 26 15 30 17 14 14 11 8 9 10 10 7 8 14 6 10 9 13 54 87 96 99 96 91 86 89 82 78 77 66 61 60 58 54 51 50 45 40 42 44 41 40 40 38 37 37 36 33 30 29 27 24
24 29 30 29 29 16 20 17 21 14 10 13 14 11 11 7 7 15 8 21 64 67 69 73 69 66 65 62 61 60 56 48 47 48 44 38 40 40 36 33 35 39 41 39 37 40 40 37 34 32 32 30 28 26
22 15 27 54 37 32 10 13 15 9 16 18 12 15 10 11 15 10 20 35 38 37 37 37 38 34 35 34 34 38 33 31 33 34 33 30 28 29 29 30 31 29 32 39 40 37 34 33 34 33 32 32 31 29
16 34 44 65 37 57 26 12 17 22 13 20 24 16 19 20 14 9 14 12 17 24 28 31 33 31 23 20 22 23 25 25 32 34 32 30 28 30 33 32 30 30 32 37 35 34 34 31 30 30 30 31 31 29
13 42 62 41 41 33 21 28 23 29 42 42 18 18 13 9 9 10 11 12 14 17 17 19 21 23 22 20 20 20 22 28 29 29 29 29 28 32 33 34 36 35 34 38 38 34 30 29 30 33 34 33 31 28
3 33 26 34 46 36 45 49 51 48 57 48 36 21 15 12 5 6 9 13 13 15 17 20 23 24 22 22 21 22 26 24 24 25 24 25 25 25 33 38 37 36 37 41 39 38 37 38 41 41 38 34 30 25
20 11 9 6 13 22 34 42 45 33 33 29 21 17 18 20 15 17 14 4 8 11 14 18 19 19 19 20 21 22 20 22 22 22 23 25 27 25 34 37 36 36 40 39 34 32 36 40 39 37 35 31 27 21
18 11 9 7 4 11 16 8 13 10 9 9 9 12 13 10 9 10 31 18 10 11 13 17 19 20 21 20 20 21 21 23 32 31 22 22 25 30 37 41 41 41 40 35 34 37 38 37 37 35 32 29 23 17
7 14 9 4 2 3 5 10 8 8 14 9 12 11 12 10 9 14 22 32 27 24 23 22 22 22 22 23 23 24 25 23 23 34 30 25 25 29 35 41 42 39 37 37 39 40 39 36 35 33 29 24 19 13
Wind_Direction_500mb
200 212 221 227 243 254 260 258 264 253 224 213 228 234 255 11 9 29 91 148 187 111 145 163 122 129 147 176 168 147 128 74 70 151 189 149 214 177 197 150 174 177 173 193 205 233 263 200 101 220 303 41 57 62
195 193 181 188 216 240 249 254 258 259 269 276 281 263 242 254 323 356 34 58 102 111 151 169 165 163 189 156 99 158 60 153 158 145 181 125 170 170 23 221 201 217 205 191 199 211 225 183 258 235 289 284 238 178
194 193 189 187 189 188 205 229 234 241 251 271 303 264 205 226 281 331 351 116 103 98 125 150 220 214 185 188 162 160 157 142 152 106 136 81 210 169 201 229 237 232 231 238 200 233 252 255 262 259 264 245 249 241
195 192 190 188 187 193 198 211 227 233 235 238 249 179 202 226 261 282 278 152 136 145 130 151 169 176 199 191 182 196 179 174 169 112 108 154 242 203 245 318 248 279 164 224 250 265 281 275 264 256 259 244 242 256
186 182 180 174 172 173 168 205 221 213 235 239 228 224 224 234 245 261 268 219 198 152 112 126 162 211 243 215 200 188 178 168 159 145 190 223 241 237 218 298 245 208 221 221 247 244 243 272 279 280 242 238 245 271
187 183 174 167 161 153 151 132 123 156 207 217 226 235 242 230 235 253 250 183 171 142 124 118 104 84 213 223 211 201 193 196 176 208 206 240 238 257 266 256 256 234 232 238 252 263 270 273 270 263 235 237 273 276
177 172 167 166 162 158 143 124 103 82 114 195 209 227 247 226 214 205 190 170 158 141 125 111 109 109 146 149 135 149 180 186 178 240 240 265 198 207 255 253 232 251 247 249 248 258 265 259 258 258 253 263 265 269
176 171 164 158 157 150 136 123 96 66 86 130 184 195 208 218 172 202 224 179 166 158 134 117 97 154 156 145 125 145 142 165 219 251 250 238 229 221 254 242 249 251 253 264 259 249 243 252 258 252 251 256 272 275
183 181 178 172 166 154 132 122 102 75 39 58 122 149 152 201 207 148 157 165 178 157 131 165 161 141 166 135 127 143 162 203 224 248 178 242 210 227 236 251 245 247 240 238 256 247 246 254 257 249 257 266 265 270
190 190 188 187 186 183 175 176 155 116 211 42 67 136 155 149 141 125 110 135 166 195 193 156 133 134 162 164 124 133 187 336 237 141 307 232 254 253 254 252 256 256 251 240 245 245 244 246 246 247 254 265 267 266
198 197 197 198 199 197 192 198 209 173 150 231 181 162 151 156 149 146 126 157 177 193 183 154 167 138 173 167 163 183 172 147 243 118 257 246 264 244 256 259 239 239 245 245 247 251 251 252 252 255 259 258 262 265
203 204 204 206 210 210 209 207 231 204 213 213 217 149 150 166 140 178 156 266 235 213 162 156 151 137 154 151 141 162 159 179 243 114 238 257 250 255 242 216 224 226 229 238 240 245 247 250 254 261 262 263 265 267
206 206 210 215 217 220 217 200 229 243 228 237 182 164 160 186 178 201 195 210 231 172 175 158 137 150 131 147 93 163 174 210 118 217 238 238 255 245 220 228 231 230 232 235 242 248 248 252 251 254 261 264 264 266
210 212 214 216 217 215 204 211 219 237 253 215 185 230 204 180 239 198 211 103 160 159 154 141 121 146 141 129 127 171 71 260 234 237 236 243 245 227 223 220 231 240 243 249 254 254 254 255 259 262 264 266 267 269
215 217 218 216 214 205 201 211 211 211 229 226 197 236 215 238 251 222 194 146 150 154 147 123 103 156 128 113 117 114 137 239 223 232 230 244 224 218 221 230 239 240 241 249 256 254 257 260 264 268 270 271 271 268
213 211 219 217 204 192 202 198 198 207 243 232 228 245 226 235 212 223 203 186 164 158 148 132 128 153 189 126 167 211 198 224 234 217 238 239 233 227 229 235 244 246 245 254 253 252 256 263 271 275 275 275 273 266
199 214 222 207 190 191 201 195 190 217 230 229 244 230 218 255 229 217 202 192 174 162 190 154 179 200 107 192 236 197 215 218 221 241 258 264 252 252 253 259 255 254 257 257 252 257 266 272 275 277 279 278 270 269
208 221 217 199 184 192 195 196 206 224 239 232 226 235 220 219 213 211 201 189 171 195 176 214 144 191 201 203 222 232 242 249 257 268 276 273 274 270 260 260 262 262 260 253 255 263 269 272 273 275 274 272 273 274
215 217 208 193 197 180 186 203 206 232 226 222 223 231 225 228 231 231 216 198 195 192 194 193 242 207 223 233 253 264 269 273 285 292 290 290 287 285 277 271 267 268 260 256 261 269 268 267 268 270 273 275 273 266
211 214 209 202 194 180 188 217 200 230 220 219 218 222 212 224 228 226 219 210 202 196 211 219 226 241 239 251 260 270 280 285 285 287 289 294 297 293 288 287 279 270 260 260 262 263 261 262 268 273 273 268 261 254
204 205 205 199 197 199 218 208 207 225 213 201 207 209 222 229 220 217 216 207 185 211 231 233 245 251 254 260 266 272 275 277 279 283 287 288 290 289 289 285 280 274 267 263 259 257 257 263 268 264 260 252 242 237
195 194 183 191 193 201 232 220 214 180 192 201 187 189 198 206 209 201 202 193 220 227 229 238 245 253 257 260 265 268 274 277 280 285 287 289 289 291 290 288 281 273 269 263 257 254 260 262 257 253 244 234 227 223
189 187 185 185 195 205 229 184 183 189 176 183 162 183 220 210 200 176 231 222 239 245 251 254 259 262 263 268 267 268 270 275 280 283 287 291 292 289 283 277 270 267 263 254 253 257 255 250 242 231 222 216 211 210
188 181 186 182 192 199 174 183 180 150 127 168 168 218 200 189 172 208 249 247 248 258 262 262 261 262 264 265 266 271 278 282 283 284 285 286 286 287 284 270 259 255 253 253 247 239 236 229 218 210 205 204 206 214
178 184 182 187 190 155 175 167 160 176 169 174 192 234 177 159 194 238 229 242 243 252 259 260 260 262 265 272 273 275 281 282 281 281 284 283 283 281 277 262 250 246 244 235 228 225 215 206 202 201 201 207 212 212
203 193 179 191 188 173 189 153 187 170 146 178 214 125 152 166 220 251 213 232 235 252 257 261 262 267 266 269 273 276 282 279 279 280 282 276 273 271 265 252 244 233 226 222 215 208 202 199 199 205 208 208 208 202
199 167 193 205 190 187 131 94 135 146 175 203 158 156 162 208 233 239 228 233 239 240 241 249 253 262 263 255 263 272 280 289 290 295 289 278 263 244 233 230 233 233 227 210 201 200 204 206 208 208 206 202 194 190
183 180 194 200 199 204 201 155 167 192 188 147 136 173 189 202 218 200 207 228 230 234 238 242 245 250 249 243 259 275 277 295 299 287 275 264 247 234 226 226 225 204 200 198 198 199 203 208 210 209 201 193 189 188
181 183 195 208 206 205 207 197 208 202 179 168 186 205 205 187 209 226 238 233 230 231 236 233 233 233 246 261 266 272 287 284 282 270 261 254 243 228 216 202 193 193 194 196 195 197 202 204 200 192 186 184 185 185
148 185 199 206 207 210 216 215 225 213 210 210 214 183 152 140 138 240 252 241 241 241 242 242 250 261 269 276 283 278 270 264 262 259 255 258 251 230 208 196 192 195 197 195 196 200 201 194 186 182 183 184 183 185
334 311 243 205 221 222 224 218 212 192 183 183 184 179 158 149 134 58 33 301 271 266 259 259 265 274 277 276 274 272 267 248 233 243 245 239 232 226 212 203 201 199 197 199 205 203 196 185 184 184 182 181 183 187
339 8 356 304 60 113 131 119 121 109 102 100 74 96 112 105 82 59 19 16 354 327 314 304 289 277 272 272 267 262 257 249 236 232 235 230 219 215 211 206 202 197 200 198 191 188 183 185 183 181 181 180 184 194
339 358 21 28 30 50 74 101 81 77 56 69 60 68 59 74 86 36 15 12 7 359 344 328 306 286 271 261 257 252 246 249 248 228 220 219 219 217 214 208 201 197 192 187 185 181 179 181 181 181 182 187 197 215
Wind_Speed_850mb
18 18 19 16 14 13 11 8 6 4 4 8 13 13 7 7 12 10 8 7 6 9 13 7 6 5 6 9 6 11 9 2 3 4 3 3 4 6 4 3 11 17 17 11 12 12 20 21 5 12 3 9 10 14
21 19 16 13 12 15 18 16 14 12 11 10 14 21 22 11 8 9 5 5 11 6 11 12 6 7 8 9 6 12 4 6 11 5 2 4 4 4 0 5 14 10 12 9 20 15 5 14 6 15 19 11 5 4
23 19 19 18 14 8 6 12 17 17 14 12 16 12 19 11 4 5 3 7 13 10 10 7 5 9 9 10 13 6 3 4 5 8 7 2 5 6 7 10 6 12 21 8 7 16 36 35 32 35 29 21 19 17
23 21 19 16 13 12 10 7 9 14 16 12 4 7 12 9 5 4 2 4 8 9 6 5 7 7 9 11 11 12 9 11 9 7 3 3 5 8 4 5 7 3 15 13 20 30 35 46 40 35 32 35 25 21
25 21 19 17 12 9 6 4 6 8 8 11 12 12 13 12 11 8 7 9 11 6 6 7 10 7 5 9 10 12 11 9 7 5 3 5 3 4 4 4 15 24 20 13 13 15 23 21 23 23 33 34 26 26
28 25 21 17 12 12 9 6 5 3 7 10 10 12 16 17 15 8 3 2 15 14 7 5 5 2 11 7 12 11 15 12 5 4 4 5 6 3 7 9 18 34 57 58 55 42 38 36 30 21 25 26 32 32
29 24 21 19 15 10 9 7 6 6 3 6 11 13 15 12 15 10 6 8 18 12 6 9 6 3 7 10 7 7 11 5 5 3 6 4 4 8 7 12 8 24 42 48 54 48 40 49 31 26 39 39 32 32
29 24 21 18 15 12 10 9 7 6 5 4 8 13 13 7 6 6 11 10 19 6 5 5 4 6 13 6 5 7 5 6 5 4 4 3 4 10 13 41 36 32 27 31 33 35 45 33 23 31 32 30 33 33
32 28 24 19 14 11 9 8 7 7 6 7 9 14 11 6 3 3 8 16 20 5 5 4 7 5 15 6 7 7 7 6 4 5 4 4 8 16 26 35 38 40 26 18 18 35 43 44 37 35 35 38 39 40
35 30 26 23 21 18 14 8 5 2 2 3 5 4 4 5 9 16 7 7 8 7 7 4 11 7 11 9 5 7 1 1 4 2 3 7 11 64 67 65 62 54 37 34 35 31 28 38 40 41 41 38 43 39
36 32 28 23 20 16 15 12 7 4 4 2 2 4 7 14 8 4 2 2 3 4 9 9 9 10 11 7 7 5 5 3 4 3 4 6 9 12 21 20 14 35 53 61 54 47 39 35 34 37 43 41 39 39
41 34 28 23 19 17 15 14 10 8 5 4 2 7 9 6 3 3 2 1 6 4 13 12 11 10 12 10 7 5 4 3 6 1 4 7 10 30 19 11 10 12 15 22 33 45 51 53 50 48 46 46 44 43
41 34 28 24 21 19 16 15 13 10 7 4 6 7 7 4 4 9 11 6 5 18 22 16 9 10 9 7 9 5 9 6 3 4 7 11 19 17 21 25 25 22 24 24 23 27 31 35 38 41 41 42 45 46
43 38 33 29 25 22 20 21 16 10 4 5 7 5 8 7 10 9 5 3 9 11 38 26 15 7 8 6 4 7 4 1 5 6 12 7 34 32 31 29 27 29 32 33 34 34 35 36 38 41 44 47 50 49
47 43 38 34 30 27 28 24 18 13 7 7 7 9 12 10 8 6 13 8 12 40 45 19 12 6 4 7 1 8 4 9 12 11 7 23 24 30 40 40 37 36 37 38 38 40 40 43 45 46 49 51 53 51
52 40 49 40 36 35 36 29 23 15 7 10 13 6 9 2 5 10 18 14 29 51 21 9 8 5 6 5 9 15 8 14 9 9 40 28 27 34 37 36 35 38 40 43 42 41 42 44 47 50 53 55 52 47
50 63 57 46 42 42 40 33 20 12 12 10 12 26 21 10 7 8 22 21 46 38 6 7 11 11 8 4 8 10 13 9 17 27 22 16 26 33 37 39 40 41 46 47 45 44 46 49 53 54 54 45 41 42
65 64 48 41 55 57 48 38 15 13 16 26 13 20 28 24 17 19 24 34 45 29 16 8 16 10 12 13 10 9 29 35 31 27 24 24 27 34 40 46 47 49 52 51 51 52 54 56 53 48 42 42 43 44
69 67 47 59 67 54 27 25 21 14 39 15 35 34 29 24 37 33 28 40 53 35 11 11 10 10 11 16 14 34 37 38 44 48 51 46 41 45 49 54 54 56 59 58 56 56 56 52 47 44 44 44 42 38
66 60 55 54 69 28 16 17 26 16 13 20 31 29 20 24 35 37 41 42 62 16 12 9 13 32 21 41 48 57 58 53 46 55 66 65 51 45 39 45 51 57 60 62 62 62 57 50 46 45 43 38 34 31
71 63 51 54 79 43 20 17 24 14 12 17 21 32 19 21 21 24 27 39 28 16 11 60 80 95 97 98 102 105 102 92 86 79 80 70 69 64 63 57 57 61 64 66 68 59 52 48 45 40 36 32 29 27
79 82 68 85 31 27 25 29 14 18 15 10 15 20 9 9 15 19 23 29 20 38 48 77 96 105 105 108 115 104 100 97 89 85 87 85 80 78 74 66 62 63 63 62 58 51 45 42 39 34 31 28 27 25
73 87 52 40 26 33 14 35 23 24 8 14 17 9 8 13 16 24 16 24 28 62 77 89 99 103 110 112 97 98 98 95 99 101 100 94 88 79 73 66 59 58 57 52 48 46 43 37 33 31 29 28 26 24
92 57 37 35 38 14 23 23 15 16 11 9 10 9 8 11 14 11 10 13 54 65 76 96 94 95 95 95 95 95 91 85 84 79 72 65 66 63 51 47 48 45 44 44 43 40 38 34 33 32 31 28 26 24
38 31 26 15 30 17 14 14 11 8 9 10 10 7 8 14 6 10 9 13 54 87 96 99 96 91 86 89 82 78 77 66 61 60 58 54 51 50 45 40 42 44 41 40 40 38 37 37 36 33 30 29 27 24
24 29 30 29 29 16 20 17 21 14 10 13 14 11 11 7 7 15 8 21 64 67 69 73 69 66 65 62 61 60 56 48 47 48 44 38 40 40 36 33 35 39 41 39 37 40 40 37 34 32 32 30 28 26
22 15 27 54 37 32 10 13 15 9 16 18 12 15 10 11 15 10 20 35 38 37 37 37 38 34 35 34 34 38 33 31 33 34 33 30 28 29 29 30 31 29 32 39 40 37 34 33 34 33 32 32 31 29
16 34 44 65 37 57 26 12 17 22 13 20 24 16 19 20 14 9 14 12 17 24 28 31 33 31 23 20 22 23 25 25 32 34 32 30 28 30 33 32 30 30 32 37 35 34 34 31 30 30 30 31 31 29
13 42 62 41 41 33 21 28 23 29 42 42 18 18 13 9 9 10 11 12 14 17 17 19 21 23 22 20 20 20 22 28 29 29 29 29 28 32 33 34 36 35 34 38 38 34 30 29 30 33 34 33 31 28
3 33 26 34 46 36 45 49 51 48 57 48 36 21 15 12 5 6 9 13 13 15 17 20 23 24 22 22 21 22 26 24 24 25 24 25 25 25 33 38 37 36 37 41 39 38 37 38 41 41 38 34 30 25
20 11 9 6 13 22 34 42 45 33 33 29 21 17 18 20 15 17 14 4 8 11 14 18 19 19 19 20 21 22 20 22 22 22 23 25 27 25 34 37 36 36 40 39 34 32 36 40 39 37 35 31 27 21
18 11 9 7 4 11 16 8 13 10 9 9 9 12 13 10 9 10 31 18 10 11 13 17 19 20 21 20 20 21 21 23 32 31 22 22 25 30 37 41 41 41 40 35 34 37 38 37 37 35 32 29 23 17
7 14 9 4 2 3 5 10 8 8 14 9 12 11 12 10 9 14 22 32 27 24 23 22 22 22 22 23 23 24 25 23 23 34 30 25 25 29 35 41 42 39 37 37 39 40 39 36 35 33 29 24 19 13
Wind_Direction_850mb
200 212 221 227 243 254 260 258 264 253 224 213 228 234 255 11 9 29 91 148 187 111 145 163 122 129 147 176 168 147 128 74 70 151 189 149 214 177 197 150 174 177 173 193 205 233 263 200 101 220 303 41 57 62
195 193 181 188 216 240 249 254 258 259 269 276 281 263 242 254 323 356 34 58 102 111 151 169 165 163 189 156 99 158 60 153 158 145 181 125 170 170 23 221 201 217 205 191 199 211 225 183 258 235 289 284 238 178
194 193 189 187 189 188 205 229 234 241 251 271 303 264 205 226 281 331 351 116 103 98 125 150 220 214 185 188 162 160 157 142 152 106 136 81 210 169 201 229 237 232 231 238 200 233 252 255 262 259 264 245 249 241
195 192 190 188 187 193 198 211 227 233 235 238 249 179 202 226 261 282 278 152 136 145 130 151 169 176 199 191 182 196 179 174 169 112 108 154 242 203 245 318 248 279 164 224 250 265 281 275 264 256 259 244 242 256
186 182 180 174 172 173 168 205 221 213 235 239 228 224 224 234 245 261 268 219 198 152 112 126 162 211 243 215 200 188 178 168 159 145 190 223 241 237 218 298 245 208 221 221 247 244 243 272 279 280 242 238 245 271
187 183 174 167 161 153 151 132 123 156 207 217 226 235 242 230 235 253 250 183 171 142 124 118 104 84 213 223 211 201 193 196 176 208 206 240 238 257 266 256 256 234 232 238 252 263 270 273 270 263 235 237 273 276
177 172 167 166 162 158 143 124 103 82 114 195 209 227 247 226 214 205 190 170 158 141 125 111 109 109 146 149 135 149 180 186 178 240 240 265 198 207 255 253 232 251 247 249 248 258 265 259 258 258 253 263 265 269
176 171 164 158 157 150 136 123 96 66 86 130 184 195 208 218 172 202 224 179 166 158 134 117 97 154 156 145 125 145 142 165 219 251 250 238 229 221 254 242 249 251 253 264 259 249 243 252 258 252 251 256 272 275
183 181 178 172 166 154 132 122 102 75 39 58 122 149 152 201 207 148 157 165 178 157 131 165 161 141 166 135 127 143 162 203 224 248 178 242 210 227 236 251 245 247 240 238 256 247 246 254 257 249 257 266 265 270
190 190 188 187 186 183 175 176 155 116 211 42 67 136 155 149 141 125 110 135 166 195 193 156 133 134 162 164 124 133 187 336 237 141 307 232 254 253 254 252 256 256 251 240 245 245 244 246 246 247 254 265 267 266
198 197 197 198 199 197 192 198 209 173 150 231 181 162 151 156 149 146 126 157 177 193 183 154 167 138 173 167 163 183 172 147 243 118 257 246 264 244 256 259 239 239 245 245 247 251 251 252 252 255 259 258 262 265
203 204 204 206 210 210 209 207 231 204 213 213 217 149 150 166 140 178 156 266 235 213 162 156 151 137 154 151 141 162 159 179 243 114 238 257 250 255 242 216 224 226 229 238 240 245 247 250 254 261 262 263 265 267
206 206 210 215 217 220 217 200 229 243 228 237 182 164 160 186 178 201 195 210 231 172 175 158 137 150 131 147 93 163 174 210 118 217 238 238 255 245 220 228 231 230 232 235 242 248 248 252 251 254 261 264 264 266
210 212 214 216 217 215 204 211 219 237 253 215 185 230 204 180 239 198 211 103 160 159 154 141 121 146 141 129 127 171 71 260 234 237 236 243 245 227 223 220 231 240 243 249 254 254 254 255 259 262 264 266 267 269
215 217 218 216 214 205 201 211 211 211 229 226 197 236 215 238 251 222 194 146 150 154 147 123 103 156 128 113 117 114 137 239 223 232 230 244 224 218 221 230 239 240 241 249 256 254 257 260 264 268 270 271 271 268
213 211 219 217 204 192 202 198 198 207 243 232 228 245 226 235 212 223 203 186 164 158 148 132 128 153 189 126 167 211 198 224 234 217 238 239 233 227 229 235 244 246 245 254 253 252 256 263 271 275 275 275 273 266
199 214 222 207 190 191 201 195 190 217 230 229 244 230 218 255 229 217 202 192 174 162 190 154 179 200 107 192 236 197 215 218 221 241 258 264 252 252 253 259 255 254 257 257 252 257 266 272 275 277 279 278 270 269
208 221 217 199 184 192 195 196 206 224 239 232 226 235 220 219 213 211 201 189 171 195 176 214 144 191 201 203 222 232 242 249 257 268 276 273 274 270 260 260 262 262 260 253 255 263 269 272 273 275 274 272 273 274
215 217 208 193 197 180 186 203 206 232 226 222 223 231 225 228 231 231 216 198 195 192 194 193 242 207 223 233 253 264 269 273 285 292 290 290 287 285 277 271 267 268 260 256 261 269 268 267 268 270 273 275 273 266
211 214 209 202 194 180 188 217 200 230 220 219 218 222 212 224 228 226 219 210 202 196 211 219 226 241 239 251 260 270 280 285 285 287 289 294 297 293 288 287 279 270 260 260 262 263 261 262 268 273 273 268 261 254
204 205 205 199 197 199 218 208 207 225 213 201 207 209 222 229 220 217 216 207 185 211 231 233 245 251 254 260 266 272 275 277 279 283 287 288 290 289 289 285 280 274 267 263 259 257 257 263 268 264 260 252 242 237
195 194 183 191 193 201 232 220 214 180 192 201 187 189 198 206 209 201 202 193 220 227 229 238 245 253 257 260 265 268 274 277 280 285 287 289 289 291 290 288 281 273 269 263 257 254 260 262 257 253 244 234 227 223
189 187 185 185 195 205 229 184 183 189 176 183 162 183 220 210 200 176 231 222 239 245 251 254 259 262 263 268 267 268 270 275 280 283 287 291 292 289 283 277 270 267 263 254 253 257 255 250 242 231 222 216 211 210
188 181 186 182 192 199 174 183 180 150 127 168 168 218 200 189 172 208 249 247 248 258 262 262 261 262 264 265 266 271 278 282 283 284 285 286 286 287 284 270 259 255 253 253 247 239 236 229 218 210 205 204 206 214
178 184 182 187 190 155 175 167 160 176 169 174 192 234 177 159 194 238 229 242 243 252 259 260 260 262 265 272 273 275 281 282 281 281 284 283 283 281 277 262 250 246 244 235 228 225 215 206 202 201 201 207 212 212
203 193 179 191 188 173 189 153 187 170 146 178 214 125 152 166 220 251 213 232 235 252 257 261 262 267 266 269 273 276 282 279 279 280 282 276 273 271 265 252 244 233 226 222 215 208 202 199 199 205 208 208 208 202
199 167 193 205 190 187 131 94 135 146 175 203 158 156 162 208 233 239 228 233 239 240 241 249 253 262 263 255 263 272 280 289 290 295 289 278 263 244 233 230 233 233 227 210 201 200 204 206 208 208 206 202 194 190
183 180 194 200 199 204 201 155 167 192 188 147 136 173 189 202 218 200 207 228 230 234 238 242 245 250 249 243 259 275 277 295 299 287 275 264 247 234 226 226 225 204 200 198 198 199 203 208 210 209 201 193 189 188
181 183 195 208 206 205 207 197 208 202 179 168 186 205 205 187 209 226 238 233 230 231 236 233 233 233 246 261 266 272 287 284 282 270 261 254 243 228 216 202 193 193 194 196 195 197 202 204 200 192 186 184 185 185
148 185 199 206 207 210 216 215 225 213 210 210 214 183 152 140 138 240 252 241 241 241 242 242 250 261 269 276 283 278 270 264 262 259 255 258 251 230 208 196 192 195 197 195 196 200 201 194 186 182 183 184 183 185
334 311 243 205 221 222 224 218 212 192 183 183 184 179 158 149 134 58 33 301 271 266 259 259 265 274 277 276 274 272 267 248 233 243 245 239 232 226 212 203 201 199 197 199 205 203 196 185 184 184 182 181 183 187
339 8 356 304 60 113 131 119 121 109 102 100 74 96 112 105 82 59 19 16 354 327 314 304 289 277 272 272 267 262 257 249 236 232 235 230 219 215 211 206 202 197 200 198 191 188 183 185 183 181 181 180 184 194
339 358 21 28 30 50 74 101 81 77 56 69 60 68 59 74 86 36 15 12 7 359 344 328 306 286 271 261 257 252 246 249 248 228 220 219 219 217 214 208 201 197 192 187 185 181 179 181 181 181 182 187 197 215